Total_Precipitation_Accumulation
2.74 2.88 2.85 2.82 2.88 2.84 2.93 3.13 3.26 3.03 2.65 2.31 2.17 2.01 2.09 2.19 2.39 2.01 1.99 2.16 1.93 1.78 1.70 1.66 1.63 1.58 1.64 1.82 1.86 1.86 1.93 1.99 2.07 2.16 2.30 2.44 2.63 2.86
2.51 2.71 2.73 2.69 2.86 2.94 3.03 3.08 3.14 3.16 2.89 2.40 2.28 2.11 2.12 2.06 2.44 2.09 2.06 2.16 1.88 1.63 1.50 1.41 1.36 1.31 1.37 1.53 1.57 1.61 1.66 1.66 1.69 1.73 1.85 1.96 2.13 2.33
2.31 2.42 2.53 2.63 2.79 2.84 2.92 2.94 3.01 3.07 2.93 2.49 2.35 2.34 2.34 2.28 2.34 2.21 2.09 2.01 1.84 1.69 1.46 1.32 1.27 1.22 1.25 1.37 1.41 1.41 1.49 1.53 1.55 1.55 1.60 1.68 1.77 1.87
2.13 2.22 2.28 2.37 2.49 2.45 2.56 2.59 2.64 2.76 2.75 2.65 2.61 2.52 2.49 2.43 2.32 2.14 1.84 1.61 1.57 1.60 1.44 1.35 1.29 1.25 1.28 1.36 1.38 1.39 1.38 1.36 1.36 1.39 1.44 1.44 1.48 1.58
1.91 1.95 2.01 2.10 2.09 2.04 2.08 2.09 2.19 2.31 2.58 2.56 2.47 2.59 2.51 2.48 2.58 2.24 1.97 1.94 1.48 1.44 1.36 1.32 1.30 1.26 1.24 1.25 1.24 1.23 1.22 1.16 1.11 1.13 1.22 1.31 1.35 1.33
1.70 1.71 1.68 1.64 1.64 1.70 1.73 1.81 1.97 2.28 2.51 2.48 2.30 2.29 2.32 2.29 2.53 2.39 2.25 2.13 1.82 1.39 1.33 1.22 1.22 1.22 1.19 1.13 1.08 1.04 1.04 1.08 1.10 1.08 1.09 1.11 1.14 1.16
1.60 1.56 1.47 1.45 1.49 1.47 1.39 1.57 1.85 2.17 2.32 2.36 2.29 2.19 2.13 2.18 2.23 2.12 2.10 2.13 2.02 1.66 1.58 1.32 1.19 1.20 1.23 1.20 1.14 1.03 0.93 0.91 0.96 0.99 1.01 1.02 1.04 1.07
1.56 1.46 1.36 1.35 1.33 1.29 1.26 1.37 1.55 1.76 1.94 2.08 2.08 2.05 2.02 2.07 2.17 2.17 2.19 2.25 2.14 1.85 1.84 1.67 1.41 1.48 1.41 1.26 1.17 1.07 1.00 0.95 0.92 0.94 1.00 1.02 1.01 1.00
1.52 1.53 1.33 1.16 1.28 1.27 1.31 1.34 1.35 1.43 1.59 1.82 1.94 1.88 1.95 2.07 2.29 2.25 2.30 2.33 2.18 1.97 2.07 1.99 1.79 1.72 1.43 1.24 1.26 1.09 1.00 0.95 0.94 0.93 0.96 0.99 1.03 1.04
1.40 1.42 1.47 1.42 1.34 1.36 1.34 1.33 1.29 1.32 1.42 1.51 1.68 1.74 1.76 1.92 2.16 2.18 2.24 2.27 2.14 1.97 2.06 2.10 1.81 1.73 1.41 1.46 1.38 1.13 1.00 0.96 0.93 0.86 0.88 0.93 1.03 1.10
1.24 1.24 1.22 1.22 1.25 1.34 1.41 1.48 1.46 1.40 1.24 1.30 1.37 1.50 1.64 1.76 1.89 1.99 2.14 2.33 2.25 2.03 1.98 2.08 1.89 1.78 1.60 1.61 1.44 1.26 1.16 1.14 1.06 0.92 0.84 0.87 0.95 1.07
1.20 1.17 1.11 1.03 1.04 1.06 1.14 1.39 1.54 1.46 1.35 1.36 1.48 1.63 1.73 1.80 1.82 1.88 2.07 2.24 2.26 2.25 1.99 2.04 1.99 1.98 1.90 1.62 1.49 1.42 1.38 1.42 1.33 1.13 0.96 0.93 1.01 1.02
1.12 1.11 1.07 0.96 0.84 0.86 1.00 1.20 1.34 1.36 1.48 1.72 1.92 1.96 1.95 1.92 1.81 1.76 1.93 2.07 2.15 2.17 1.90 1.98 2.03 2.10 2.15 1.85 1.52 1.50 1.56 1.64 1.58 1.38 1.17 1.11 1.13 1.07
1.08 1.09 1.04 0.96 0.84 0.86 0.94 1.08 1.17 1.31 1.57 1.88 2.02 1.96 1.73 1.57 1.60 1.62 1.71 1.84 1.91 1.90 1.84 1.91 2.02 2.08 2.09 1.89 1.65 1.55 1.66 1.77 1.76 1.65 1.44 1.37 1.31 1.20
0.96 1.00 0.98 0.98 0.98 1.03 1.07 1.11 1.19 1.39 1.63 1.76 1.76 1.64 1.51 1.46 1.52 1.63 1.64 1.79 1.83 1.64 1.55 1.58 1.77 1.91 2.05 1.96 1.80 1.77 1.86 2.00 1.96 1.90 1.79 1.57 1.43 1.38
0.95 1.03 1.11 1.16 1.16 1.15 1.20 1.28 1.34 1.44 1.49 1.56 1.53 1.47 1.42 1.48 1.54 1.54 1.63 1.76 1.91 1.77 1.60 1.53 1.61 1.83 1.95 1.89 1.93 1.95 1.97 2.20 2.16 2.03 1.97 1.88 1.66 1.46
0.94 1.08 1.25 1.33 1.33 1.28 1.25 1.28 1.32 1.35 1.38 1.35 1.36 1.38 1.41 1.43 1.43 1.45 1.59 1.67 1.78 1.72 1.67 1.64 1.65 1.73 1.72 1.75 1.85 1.84 1.91 2.06 2.14 2.11 2.11 2.18 2.09 1.81
1.01 1.21 1.35 1.39 1.40 1.27 1.23 1.19 1.18 1.19 1.17 1.19 1.25 1.32 1.36 1.35 1.36 1.40 1.50 1.63 1.71 1.66 1.65 1.66 1.69 1.84 1.86 1.72 1.73 1.80 1.80 2.00 2.10 2.06 2.01 2.16 2.24 1.99
1.00 1.13 1.27 1.35 1.42 1.27 1.19 1.20 1.17 1.15 1.15 1.19 1.23 1.26 1.29 1.31 1.34 1.40 1.46 1.56 1.63 1.62 1.60 1.61 1.64 1.72 1.81 1.77 1.68 1.71 1.81 1.92 1.99 1.96 1.94 1.97 2.10 2.01
1.04 1.10 1.18 1.29 1.34 1.30 1.23 1.24 1.22 1.22 1.22 1.25 1.25 1.28 1.33 1.36 1.33 1.32 1.39 1.43 1.49 1.57 1.61 1.61 1.61 1.60 1.62 1.63 1.75 1.75 1.67 1.62 1.65 1.74 1.80 1.86 1.91 1.87
1.01 1.02 1.06 1.15 1.24 1.31 1.34 1.31 1.24 1.21 1.23 1.26 1.27 1.31 1.34 1.34 1.34 1.29 1.31 1.35 1.40 1.49 1.59 1.59 1.57 1.54 1.55 1.64 1.72 1.73 1.67 1.71 1.66 1.60 1.63 1.74 1.71 1.55
1.00 1.04 1.06 1.09 1.14 1.19 1.27 1.27 1.22 1.16 1.16 1.23 1.31 1.35 1.37 1.37 1.31 1.24 1.27 1.37 1.43 1.46 1.50 1.48 1.46 1.53 1.59 1.69 1.73 1.75 1.71 1.58 1.55 1.57 1.53 1.39 1.27 1.27
1.13 1.09 1.06 1.08 1.08 1.08 1.12 1.18 1.19 1.13 1.12 1.17 1.27 1.33 1.32 1.30 1.27 1.21 1.17 1.20 1.25 1.30 1.40 1.51 1.54 1.57 1.57 1.59 1.64 1.63 1.54 1.45 1.32 1.28 1.36 1.36 1.21 1.14